TimeCST,TemperatureF,Dew PointF,Humidity,Sea Level PressureIn,VisibilityMPH,Wind Direction,Wind SpeedMPH,Gust SpeedMPH,PrecipitationIn,Events,Conditions,WindDirDegrees,DateUTC
12:15 AM,13.1,9.1,84,30.12,2.0,NW,3.5,-,N/A,Snow,Light Snow,310,2013-12-16 06:15:00
12:35 AM,13.1,9.5,86,30.12,2.0,NW,3.5,-,N/A,Snow,Light Snow,320,2013-12-16 06:35:00
12:54 AM,12.2,10.4,92,30.12,2.0,North,5.8,-,N/A,Snow,Light Snow,350,2013-12-16 06:54:00
1:14 AM,12.2,8.6,85,30.12,2.5,North,4.6,-,N/A,Snow,Light Snow,360,2013-12-16 07:14:00
1:34 AM,12.2,8.6,85,30.11,2.0,NNE,3.5,-,N/A,Snow,Light Snow,20,2013-12-16 07:34:00
1:55 AM,12.2,8.6,85,30.12,2.5,Calm,Calm,-,N/A,Snow,Light Snow,0,2013-12-16 07:55:00
2:15 AM,12.2,8.6,85,30.12,2.0,NE,3.5,-,N/A,Snow,Light Snow,40,2013-12-16 08:15:00
2:35 AM,12.2,8.6,85,30.11,2.5,NNE,3.5,-,N/A,Snow,Light Snow,30,2013-12-16 08:35:00
2:55 AM,12.2,8.6,85,30.11,2.5,NE,3.5,-,N/A,Snow,Light Snow,40,2013-12-16 08:55:00
3:15 AM,12.2,8.6,85,30.12,2.5,NNE,3.5,-,N/A,Snow,Light Snow,30,2013-12-16 09:15:00
3:35 AM,12.2,8.6,85,30.12,2.0,Calm,Calm,-,N/A,Snow,Light Snow,0,2013-12-16 09:35:00
3:55 AM,12.2,8.6,85,30.12,3.0,NE,4.6,-,N/A,Snow,Light Snow,50,2013-12-16 09:55:00
4:15 AM,12.6,9.3,87,30.12,5.0,Calm,Calm,-,N/A,Snow,Light Snow,0,2013-12-16 10:15:00
4:35 AM,12.7,9.1,86,30.12,10.0,NE,4.6,-,N/A,Snow,Light Snow,50,2013-12-16 10:35:00
4:55 AM,12.9,9.5,86,30.12,10.0,Calm,Calm,-,N/A,,Overcast,0,2013-12-16 10:55:00
5:15 AM,13.1,9.1,84,30.12,10.0,ENE,4.6,-,N/A,,Overcast,60,2013-12-16 11:15:00
5:35 AM,13.1,9.1,84,30.10,10.0,East,6.9,-,N/A,,Overcast,80,2013-12-16 11:35:00
5:55 AM,13.1,9.3,85,30.11,10.0,East,4.6,-,N/A,,Overcast,80,2013-12-16 11:55:00
6:15 AM,13.1,9.3,85,30.11,10.0,ENE,4.6,-,N/A,,Overcast,70,2013-12-16 12:15:00
6:35 AM,13.5,9.3,84,30.11,10.0,ENE,4.6,-,N/A,,Overcast,70,2013-12-16 12:35:00
6:55 AM,13.6,9.5,84,30.11,10.0,East,4.6,-,N/A,,Overcast,80,2013-12-16 12:55:00
7:15 AM,13.8,9.5,83,30.12,10.0,East,4.6,-,N/A,,Overcast,100,2013-12-16 13:15:00
7:35 AM,13.8,9.5,83,30.12,10.0,ENE,4.6,-,N/A,,Overcast,70,2013-12-16 13:35:00
7:55 AM,14.0,9.5,82,30.12,10.0,East,4.6,-,N/A,,Overcast,80,2013-12-16 13:55:00
8:15 AM,14.5,10.2,83,30.13,10.0,ENE,4.6,-,N/A,,Overcast,70,2013-12-16 14:15:00
8:35 AM,14.9,10.4,82,30.13,10.0,East,4.6,-,N/A,,Overcast,90,2013-12-16 14:35:00
8:55 AM,15.3,10.8,82,30.13,10.0,ESE,4.6,-,N/A,,Overcast,110,2013-12-16 14:55:00
9:15 AM,15.6,10.9,82,30.14,10.0,East,5.8,-,N/A,,Overcast,90,2013-12-16 15:15:00
9:35 AM,16.0,10.9,81,30.14,10.0,East,8.1,-,N/A,,Overcast,80,2013-12-16 15:35:00
9:55 AM,16.7,11.1,79,30.13,10.0,East,6.9,-,N/A,,Overcast,90,2013-12-16 15:55:00
10:15 AM,17.1,11.3,78,30.12,10.0,ESE,8.1,-,N/A,,Overcast,110,2013-12-16 16:15:00
10:35 AM,17.1,11.5,79,30.12,10.0,ESE,8.1,-,N/A,,Overcast,110,2013-12-16 16:35:00
10:55 AM,17.4,11.7,78,30.11,10.0,East,8.1,-,N/A,,Overcast,90,2013-12-16 16:55:00
11:15 AM,18.3,12.0,76,30.12,10.0,East,4.6,-,N/A,,Overcast,100,2013-12-16 17:15:00
11:35 AM,19.0,12.6,76,30.11,10.0,ENE,5.8,-,N/A,,Overcast,70,2013-12-16 17:35:00
11:55 AM,19.4,12.4,74,30.09,10.0,East,6.9,-,N/A,,Overcast,90,2013-12-16 17:55:00
12:15 PM,19.8,12.6,74,30.08,10.0,East,5.8,-,N/A,,Scattered Clouds,100,2013-12-16 18:15:00
12:35 PM,20.3,13.5,75,30.06,10.0,East,8.1,-,N/A,,Clear,100,2013-12-16 18:35:00
12:55 PM,20.3,13.6,75,30.04,10.0,ESE,9.2,-,N/A,,Clear,110,2013-12-16 18:55:00
1:15 PM,20.1,13.1,74,30.04,10.0,ESE,6.9,-,N/A,,Mostly Cloudy,110,2013-12-16 19:15:00
1:35 PM,20.1,13.5,75,30.04,10.0,East,6.9,-,N/A,,Overcast,100,2013-12-16 19:35:00
1:55 PM,20.3,13.8,76,30.04,10.0,East,4.6,-,N/A,,Overcast,100,2013-12-16 19:55:00
2:15 PM,20.3,14.4,78,30.03,10.0,SE,5.8,-,N/A,,Overcast,140,2013-12-16 20:15:00
2:35 PM,20.1,14.9,80,30.02,5.0,SE,5.8,-,N/A,Snow,Light Snow,140,2013-12-16 20:35:00
2:55 PM,19.8,14.7,81,30.02,10.0,SE,8.1,-,N/A,Snow,Light Snow,130,2013-12-16 20:55:00
3:15 PM,19.8,15.3,83,30.04,4.0,SSE,5.8,-,N/A,Snow,Light Snow,150,2013-12-16 21:15:00
3:35 PM,19.9,15.6,83,30.03,10.0,SE,5.8,-,N/A,Snow,Light Snow,130,2013-12-16 21:35:00
3:55 PM,20.1,15.6,83,30.03,10.0,SE,3.5,-,N/A,,Overcast,140,2013-12-16 21:55:00
4:15 PM,19.9,15.8,84,30.03,10.0,SE,3.5,-,N/A,,Overcast,140,2013-12-16 22:15:00
4:35 PM,20.1,16.5,86,30.04,10.0,Calm,Calm,-,N/A,,Overcast,0,2013-12-16 22:35:00
4:55 PM,20.1,16.7,87,30.03,10.0,SE,3.5,-,N/A,,Overcast,130,2013-12-16 22:55:00
5:15 PM,19.9,16.9,88,30.02,7.0,SE,3.5,-,N/A,,Overcast,140,2013-12-16 23:15:00
5:35 PM,19.9,16.7,87,30.04,7.0,Calm,Calm,-,N/A,,Overcast,0,2013-12-16 23:35:00
5:55 PM,20.1,17.1,88,30.05,7.0,Calm,Calm,-,N/A,,Overcast,0,2013-12-16 23:55:00
6:15 PM,19.9,17.4,90,30.05,7.0,Calm,Calm,-,N/A,,Overcast,0,2013-12-17 00:15:00
6:35 PM,19.8,17.6,91,30.04,5.0,Calm,Calm,-,N/A,,Overcast,0,2013-12-17 00:35:00
6:55 PM,19.9,17.6,91,30.05,5.0,Calm,Calm,-,N/A,,Overcast,0,2013-12-17 00:55:00
7:15 PM,19.8,17.6,91,30.04,5.0,Calm,Calm,-,N/A,,Overcast,0,2013-12-17 01:15:00
7:35 PM,19.9,18.1,93,30.05,5.0,Calm,Calm,-,N/A,,Overcast,0,2013-12-17 01:35:00
7:55 PM,19.8,18.5,95,30.05,3.0,WNW,3.5,-,N/A,,Overcast,290,2013-12-17 01:55:00
8:15 PM,19.6,18.5,96,30.06,2.0,WNW,5.8,-,N/A,,Overcast,290,2013-12-17 02:15:00
8:35 PM,19.4,18.5,96,30.05,1.0,WNW,3.5,-,N/A,,Overcast,290,2013-12-17 02:35:00
8:55 PM,19.8,18.5,95,30.04,0.8,SW,3.5,-,N/A,Snow,Light Snow,230,2013-12-17 02:55:00
9:15 PM,19.8,18.5,95,30.04,1.0,SW,4.6,-,N/A,,Overcast,230,2013-12-17 03:15:00
9:35 PM,19.8,18.5,95,30.06,1.2,West,5.8,-,N/A,,Overcast,270,2013-12-17 03:35:00
9:55 PM,19.8,18.5,95,30.06,1.5,West,6.9,-,N/A,,Overcast,270,2013-12-17 03:55:00
10:15 PM,19.8,18.3,94,30.07,1.5,West,8.1,-,N/A,,Overcast,270,2013-12-17 04:15:00
10:35 PM,19.4,18.1,95,30.07,2.0,West,8.1,-,N/A,,Overcast,270,2013-12-17 04:35:00
10:55 PM,19.4,18.0,94,30.07,2.0,West,9.2,-,N/A,,Overcast,260,2013-12-17 04:55:00
11:55 PM,19.0,17.6,94,30.07,3.0,West,6.9,-,N/A,,Overcast,270,2013-12-17 05:55:00